Location: Oberkirch
(48.5323°N, 8.0787°E)
Time: 21:33:35
(UTC+00:00)

CUTE-I - Visible Passes

Search period start: 16 March 2026 00:00
Search period end: 26 March 2026 00:00
Orbit: 803 x 819 km, 98.7° (Epoch: 15 March)

Date Brightness Start Highest point End Pass type
(mag) Time Alt. Az. Time Alt. Az. Time Alt. Az.
16 Mar ? 04:35:04 10° NE 04:38:18 16° E 04:41:31 10° SE visible
18 Mar ? 18:34:59 10° WSW 18:37:20 13° W 18:39:42 10° WNW visible
19 Mar ? 18:09:41 10° SW 18:13:34 20° W 18:17:28 10° NW visible
20 Mar ? 04:40:54 10° NE 04:44:30 18° E 04:48:05 10° SE visible
21 Mar ? 04:19:06 10° ENE 04:20:42 11° E 04:22:18 10° ESE visible
22 Mar ? 18:41:58 10° WSW 18:43:33 11° W 18:45:10 10° WNW visible
23 Mar ? 18:16:11 10° SW 18:19:45 18° W 18:23:21 10° NW visible
24 Mar ? 04:46:47 10° NE 04:50:41 20° E 04:54:34 10° SE visible
25 Mar ? 04:24:32 10° ENE 04:26:55 13° E 04:29:16 10° ESE visible
